FW4510 Weather Reports


Display with metric or nautical units.
time (UTC)temp
F
wind
direction
speed
MPH
gust
MPH
rain 1hr
in
rain 24hr
in
rain mn
in
humidity
%
barometer
mb
20260506043041 56 234 0.0 0.0 0.00 0.09 0.09 52 1012.0
20260506041555 57 234 0.0 1.0 0.00 0.09 0.09 50 1011.8
20260506040039 58 234 4.0 11.0 0.00 0.09 0.09 47 1011.4
20260506034537 59 234 5.0 10.0 0.00 0.09 0.09 45 1011.2
20260506033036 60 206 6.0 15.0 0.00 0.09 0.09 42 1011.0
20260506031536 60 234 8.0 12.0 0.00 0.09 0.09 41 1010.7
20260506030036 60 233 7.0 12.0 0.00 0.09 0.09 40 1010.4
20260506024539 61 234 10.0 15.0 0.00 0.09 0.09 39 1010.1
20260506023034 62 223 5.0 9.0 0.00 0.09 0.09 37 1010.2
20260506021534 63 223 6.0 14.0 0.00 0.09 0.09 34 1009.9
20260506020032 63 239 7.0 14.0 0.00 0.09 0.09 32 1009.7
20260506014543 64 248 8.0 16.0 0.00 0.09 0.09 32 1009.6
20260506013031 65 260 7.0 13.0 0.00 0.09 0.09 30 1009.5
20260506011533 67 236 8.0 19.0 0.00 0.09 0.09 30 1009.5
20260506010031 67 225 6.0 14.0 0.00 0.09 0.09 29 1009.2
20260506004538 68 184 7.0 15.0 0.00 0.09 0.09 26 1009.0
20260506003030 68 181 6.0 19.0 0.00 0.09 0.09 28 1009.0
20260506001529 69 186 3.0 14.0 0.00 0.09 0.09 27 1008.9
20260506000036 69 187 7.0 21.0 0.00 0.09 0.09 28 1008.7
20260505234528 70 235 4.0 20.0 0.00 0.09 0.09 27 1008.6
20260505233026 70 203 4.0 22.0 0.00 0.09 0.09 29 1008.6
20260505231526 70 200 4.0 19.0 0.00 0.09 0.09 29 1008.5
20260505230032 70 186 6.0 16.0 0.00 0.09 0.09 30 1008.4
20260505224535 70 176 6.0 23.0 0.00 0.09 0.09 31 1008.6
20260505223033 71 145 6.0 15.0 0.00 0.09 0.09 32 1008.7
20260505221522 70 223 10.0 15.0 0.00 0.09 0.09 36 1008.7
20260505220034 70 217 7.0 17.0 0.00 0.09 0.09 35 1008.7
20260505214536 70 220 10.0 25.0 0.00 0.09 0.09 35 1008.8
20260505213028 68 205 11.0 23.0 0.00 0.09 0.09 37 1008.9
20260505211518 71 209 12.0 22.0 0.00 0.09 0.09 35 1009.1
20260505210116 69 222 10.0 18.0 0.00 0.09 0.09 38 1009.1
20260505204524 71 226 11.0 20.0 0.00 0.09 0.09 37 1009.1
20260505203015 71 150 12.0 24.0 0.00 0.09 0.09 38 1009.3
20260505201512 69 188 7.0 18.0 0.00 0.09 0.09 40 1009.2
20260505200010 68 220 11.0 23.0 0.00 0.09 0.09 43 1009.1
20260505194509 70 202 14.0 21.0 0.00 0.09 0.09 42 1009.2
20260505193025 69 206 9.0 17.0 0.00 0.09 0.09 46 1009.1
20260505191506 69 202 10.0 18.0 0.00 0.09 0.09 48 1009.5
20260505190008 67 178 7.0 21.0 0.00 0.09 0.09 49 1009.6
20260505184503 67 215 8.0 18.0 0.00 0.09 0.09 50 1010.0
20260505183004 68 221 14.0 22.0 0.00 0.09 0.09 50 1010.1
20260505181501 68 239 14.0 19.0 0.00 0.09 0.09 49 1010.2
20260505180100 67 230 10.0 25.0 0.00 0.09 0.09 51 1010.1
20260505174559 67 225 13.0 20.0 0.00 0.09 0.09 51 1010.0
20260505173057 66 213 12.0 22.0 0.00 0.09 0.09 54 1009.8
20260505171557 65 186 6.0 20.0 0.00 0.09 0.09 55 1009.7
20260505170158 65 200 8.0 22.0 0.00 0.09 0.09 56 1009.8
20260505164555 65 220 8.0 15.0 0.00 0.09 0.09 55 1009.7
20260505163058 65 123 5.0 15.0 0.00 0.09 0.09 57 1009.8
20260505161549 63 199 4.0 11.0 0.00 0.09 0.09 60 1009.7
20260505153050 60 186 2.0 5.0 0.00 0.09 0.09 69 1009.3
20260505151543 61 190 1.0 5.0 0.00 0.09 0.09 70 1009.3
20260505124538 53 193 4.0 9.0 0.01 0.09 0.09 84 1008.2
20260505123054 53 188 3.0 6.0 0.01 0.09 0.09 85 1007.7
20260505121536 53 195 3.0 5.0 0.01 0.09 0.09 84 1007.7
20260505120046 54 195 0.0 4.0 0.00 0.08 0.08 82 1008.4
20260505114545 54 196 3.0 9.0 0.00 0.08 0.08 81 1008.3
20260505113030 54 142 1.0 7.0 0.00 0.08 0.08 82 1007.8
20260505111528 54 140 1.0 8.0 0.00 0.08 0.08 79 1008.1
20260505101521 54 104 1.0 6.0 0.01 0.08 0.08 83 1008.7
20260505100029 54 103 2.0 8.0 0.03 0.08 0.08 82 1009.1
20260505094515 54 111 3.0 8.0 0.05 0.07 0.07 83 1009.5
20260505093014 54 260 3.0 6.0 0.06 0.07 0.07 84 1009.8
20260505091512 54 260 3.0 8.0 0.06 0.06 0.06 83 1010.0
20260505090009 55 259 1.0 4.0 0.04 0.04 0.04 85 1010.4
20260505084505 56 259 1.0 4.0 0.02 0.02 0.02 85 1010.6
20260505083004 56 259 2.0 3.0 0.01 0.01 0.01 84 1011.0
20260505081605 57 259 4.0 8.0 0.00 0.00 0.00 82 1011.4
20260505080058 58 259 5.0 10.0 0.00 0.00 0.00 78 1011.2
20260505074552 59 261 5.0 10.0 0.00 0.00 0.00 70 1011.0
20260505073056 61 254 5.0 14.0 0.00 0.00 0.00 64 1011.0
20260505071545 61 265 5.0 14.0 0.00 0.00 0.00 62 1011.2
20260505070051 61 254 7.0 12.0 0.00 0.00 0.00 62 1011.3
20260505064539 61 259 0.0 1.0 0.00 0.00 0.00 62 1011.3
20260505063041 61 259 0.0 1.0 0.00 0.00 0.00 63 1011.2
20260505061538 61 259 0.0 1.0 0.00 0.00 0.00 62 1011.2
20260505060036 62 259 0.0 2.0 0.00 0.00 0.00 60 1011.0
20260505054534 62 259 1.0 6.0 0.00 0.00 0.00 58 1011.2
20260505053032 63 259 0.0 4.0 0.00 0.00 0.00 55 1011.3
20260505051536 63 259 0.0 8.0 0.00 0.00 0.00 51 1011.0